CITT46 KLAX-KSAN

Flight info

Callsign CITT46
Flight time N/A
Altitude 13000
Route KLAX LAXX1 MZB KSAN
Aircraft C25C/L-S/L

Departure

Time 2026-05-04 19:53
Airport Los Angeles International Airport (KLAX)

Arrival

Time N/A
Airport San Diego International Airport (KSAN)
Time Latitude Longitude Altitude Speed Heading
2026-05-04 19:32 33.94228 -118.39359 119 ft 0 kts 270°
2026-05-04 19:43 33.94228 -118.39346 115 ft 2 kts 270°
2026-05-04 19:44 33.94228 -118.39328 119 ft 2 kts 245°
2026-05-04 19:44 33.94235 -118.39321 117 ft 0 kts 178°
2026-05-04 19:47 33.94234 -118.39321 117 ft 0 kts 179°
2026-05-04 19:47 33.94221 -118.39320 116 ft 5 kts 174°
2026-05-04 19:47 33.94161 -118.39319 119 ft 11 kts 182°
2026-05-04 19:47 33.94073 -118.39316 119 ft 14 kts 162°
2026-05-04 19:48 33.94007 -118.39224 119 ft 15 kts 159°
2026-05-04 19:48 33.93969 -118.39118 117 ft 17 kts 82°
2026-05-04 19:48 33.93986 -118.38957 119 ft 21 kts 83°
2026-05-04 19:48 33.94004 -118.38772 119 ft 24 kts 83°
2026-05-04 19:49 33.94026 -118.38562 119 ft 27 kts 83°
2026-05-04 19:49 33.94044 -118.38371 119 ft 24 kts 83°
2026-05-04 19:49 33.94064 -118.38173 119 ft 19 kts 81°
2026-05-04 19:49 33.94075 -118.38022 119 ft 18 kts 115°
2026-05-04 19:50 33.93985 -118.38030 119 ft 12 kts 248°
2026-05-04 19:50 33.93979 -118.38083 119 ft 0 kts 263°
2026-05-04 19:52 33.93948 -118.38378 119 ft 66 kts 263°
2026-05-04 19:52 33.93870 -118.39137 119 ft 114 kts 263°
2026-05-04 19:53 33.93758 -118.40212 205 ft 140 kts 262°
2026-05-04 19:53 33.93647 -118.41469 299 ft 169 kts 263°
2026-05-04 19:53 33.93526 -118.42906 681 ft 178 kts 262°
2026-05-04 19:53 33.93392 -118.44415 1124 ft 184 kts 263°
2026-05-04 19:54 33.93245 -118.45415 1526 ft 178 kts 252°
2026-05-04 19:54 33.92302 -118.46932 2262 ft 182 kts 207°
2026-05-04 19:54 33.91455 -118.47085 2537 ft 193 kts 180°
2026-05-04 19:54 33.90157 -118.46558 3063 ft 193 kts 169°
2026-05-04 19:55 33.88883 -118.46384 3703 ft 181 kts 181°
2026-05-04 19:55 33.87613 -118.46294 4130 ft 187 kts 181°
2026-05-04 19:55 33.85862 -118.46181 4831 ft 188 kts 183°
2026-05-04 19:55 33.84568 -118.46107 5428 ft 186 kts 184°
2026-05-04 19:56 33.83683 -118.46067 5692 ft 192 kts 182°
2026-05-04 19:56 33.82320 -118.46030 6076 ft 198 kts 183°
2026-05-04 19:56 33.80959 -118.46022 6682 ft 192 kts 185°
2026-05-04 19:56 33.79628 -118.46055 7169 ft 193 kts 187°
2026-05-04 19:57 33.78264 -118.46144 7562 ft 199 kts 190°
2026-05-04 19:57 33.76883 -118.46294 8257 ft 196 kts 192°
2026-05-04 19:57 33.75555 -118.46485 9151 ft 193 kts 192°
2026-05-04 19:57 33.74168 -118.46557 9933 ft 206 kts 187°
2026-05-04 19:58 33.72601 -118.46634 10109 ft 241 kts 188°
2026-05-04 19:58 33.70874 -118.46750 10613 ft 257 kts 184°